Regional Weather Roundup
Issued by NWS Cleveland, OH

Home | Current Version | Previous Version | Text Only | Print | Product List | Glossary On
Versions: 1 2 3 4 5 6 7 8 9 10 11 12 13 14 15 16 17 18 19 20 21 22 23 24 25 26 27 28 29 30 31 32 33 34 35 36 37 38 39 40 41 42 43 44 45 46 47 48 49 50
000
ASUS41 KCLE 250312
RWRCLE
OHIO REGIONAL WEATHER ROUNDUP
NATIONAL WEATHER SERVICE WILMINGTON, OH
1100 PM EDT THU MAY 24 2018

NOTE: "FAIR" INDICATES FEW OR NO CLOUDS BELOW 12,000 FEET WITH NO
SIGNIFICANT WEATHER AND/OR OBSTRUCTIONS TO VISIBILITY.

OHZ001>008-015>018-024>027-034-035-043-044-250400-
   NORTHWEST OHIO

CITY           SKY/WX    TMP DP  RH WIND       PRES   REMARKS
DEFIANCE       FAIR      63  54  72 CALM      30.09R
FINDLAY        FAIR      68  52  56 CALM      30.08S
TOLEDO EXPRESS FAIR      62  56  80 CALM      30.08S
TOLEDO EXEC    FAIR      66  51  58 SE5       30.09S
LIMA           FAIR      65  49  56 SE6       30.10R
$$

OHZ009>014-019>023-028>033-038-089-250400-
   NORTHEAST OHIO

CITY           SKY/WX    TMP DP  RH WIND       PRES   REMARKS
CLE-HOPKINS    FAIR      64  50  60 SE5       30.12S
CLE-LAKEFRONT  FAIR      67  54  63 SE3       30.09F
CUY CO. ARPT   PTCLDY    61  54  77 CALM      30.12S
LORAIN-ELYRIA  FAIR      63  45  51 VRB6      30.10F
ASHTABULA      FAIR      57  53  86 CALM      30.12S
AKRON-CANTON   FAIR      69  49  48 S3        30.12F
WOOSTER        FAIR      62  55  77 CALM      30.12F
MANSFIELD      FAIR      68  50  52 S3        30.12F
YOUNGSTOWN     FAIR      62  51  67 E3        30.12S
$$

OHZ042-051>053-060>062-070>072-077>081-250400-
  SOUTHWEST OHIO

CITY           SKY/WX    TMP DP  RH WIND       PRES   REMARKS
CINC-COVINGTON FAIR      68  54  60 S3        30.08S
CINC-LUNKEN    FAIR      63  61  93 CALM      30.08S
HAMILTON       FAIR      64  60  87 CALM      30.08S
DAYTON         FAIR      69  52  54 E6        30.11R
WRIGHT-PAT AFB FAIR      66  56  69 CALM      30.09R
DAYTON GENERAL FAIR      69  52  54 E6        30.09R
WILMINGTON     FAIR      64  56  75 CALM      30.10R
$$

OHZ036-037-039>041-045>050-054>059-063>069-073>076-082>088-250400-
  CENTRAL AND SOUTHEAST OHIO

CITY           SKY/WX    TMP DP  RH WIND       PRES   REMARKS
COLUMBUS       FAIR      70  52  52 E3        30.09S
OSU AIRPORT    FAIR      68  51  54 E3        30.10S
BOLTON FIELD   FAIR      63  57  80 CALM      30.10S
RICKENBACK AFB FAIR      65  55  69 MISG      30.09S
NEWARK         FAIR      62  58  86 CALM      30.10S
MARION         FAIR      67  50  54 CALM      30.11S
LANCASTER      FAIR      62  57  83 CALM      30.11R
ZANESVILLE     FAIR      64  56  75 CALM      30.10S
NEW PHILLY     FAIR      62  57  83 CALM      30.12S
$$



USA.gov is the U.S. government's official web portal to all federal, state and local government web resources and services.